Location: Roussillon
(43.9008°N, 5.2947°E)
Time: 03:30:43
(UTC+00:00)

Cosmos 1727 Rocket - Pass Details

Date: 07 June 2020
Orbit: 960 x 997 km, 82.9° (Epoch: 09 July)

Event Time Altitude Azimuth Distance (km) Brightness Sun altitude
Rises 02:41:31 0° 354° (N) 3,658 7.7 -11.1°
Reaches altitude 10° 02:44:03 10° 356° (N) 2,706 7.0 -10.8°
Maximum altitude 02:50:14 69° 81° (E) 1,023 4.3 -10.1°
Drops below altitude 10° 02:56:21 10° 164° (SSE) 2,689 6.0 -9.3°
Sets 02:58:51 0° 167° (SSE) 3,634 6.7 -9.0°
